Location: Izdebno
(52.6670°N, 16.2170°E)
Time: 05:24:13
(UTC+02:00)

A-11 Canister half - Pass Details

Date: 09 February 2023
Orbit: 1526 x 1682 km, 47.3° (Epoch: 25 March)

Event Time Altitude Azimuth Distance (km) Brightness Sun altitude
Rises 11:59:50 0° 283° (WNW) 4,715 11.4 22.6°
Reaches altitude 10° 12:05:04 10° 259° (W) 3,754 11.2 22.7°
Maximum altitude 12:09:00 13° 234° (SW) 3,513 11.5 22.7°
Drops below altitude 10° 12:12:58 10° 209° (SSW) 3,796 12.3 22.7°
Sets 12:18:22 0° 185° (S) 4,813 13.1 22.6°
